Location: Chiroubles
(46.1812°N, 4.6660°E)
Time: 03:15:10
(UTC+00:00)

Cosmos 2322 Rocket - Pass Details

Date: 15 August 2020
Orbit: 831 x 852 km, 71.0° (Epoch: 25 September)

Event Time Altitude Azimuth Distance (km) Brightness Sun altitude
Rises 20:11:20 0° 336° (NNW) 3,421 6.5 -13.2°
Reaches altitude 10° 20:13:52 10° 342° (NNW) 2,484 5.5 -13.6°
Maximum altitude 20:19:25 50° 58° (ENE) 1,074 2.6 -14.3°
Enters shadow 20:22:55 22° 124° (SE) 1,779 3.3 -14.8°
